User: anonymous   Login
Location: Mentone
(34.5413°N, 85.5351°W)
Time: 02:59:55
(UTC-05:00)
Language:

UOSAT-12 - Orbit

View from above orbital plane
View from above orbital plane
View from above satellite
View from above satellite

Ground track
Ground track

The orbit data is extracted from the following two-line orbital elements,

1 25693U 99021A   17228.43136327 -.00000087  00000-0  78497-5 0  9991
2 25693  64.5563 300.0088 0039605 303.4670  56.2651 14.80745853989085
Epoch (UTC): 16 August 2017 10:21:09
Eccentricity: 0.0039605
inclination: 64.5563°
perigee height: 599 km
apogee height: 655 km
right ascension of ascending node: 300.0088°
argument of perigee: 303.4670°
revolutions per day: 14.80745853
mean anomaly at epoch: 56.2651°
orbit number at epoch: 98908

The dashed part of the orbit path shows where the satellite is in the earth's shadow,  

DLR